| time (UTC) | temp F | wind direction | speed knots | gust knots | rain 1hr in | rain 24hr in | rain mn in | humidity % | barometer mb |
| 20260906233100 | 74 | 179 | 7.0 | 13.9 | 0.00 | 0.00 | 0.00 | 16 | 937.6 |
| 20260906233002 | 74 | 198 | 7.8 | 13.9 | 0.00 | 0.00 | 0.00 | 16 | 937.6 |
| 20260906231555 | 74 | 202 | 7.8 | 20.0 | 0.00 | 0.00 | 0.00 | 18 | 937.6 |
| 20260906230032 | 75 | 203 | 5.2 | 17.4 | 0.00 | 0.00 | 0.00 | 18 | 937.5 |
| 20260906224518 | 75 | 172 | 8.7 | 19.1 | 0.00 | 0.00 | 0.00 | 16 | 937.7 |
| 20260906223058 | 75 | 197 | 8.7 | 16.5 | 0.00 | 0.00 | 0.00 | 15 | 937.8 |
| 20260906221544 | 76 | 175 | 12.2 | 19.1 | 0.00 | 0.00 | 0.00 | 14 | 938.0 |
| 20260906220037 | 77 | 147 | 11.3 | 19.1 | 0.00 | 0.00 | 0.00 | 13 | 937.9 |
| 20260906214524 | 76 | 140 | 11.3 | 19.1 | 0.00 | 0.00 | 0.00 | 14 | 938.0 |
| 20260906213050 | 79 | 166 | 11.3 | 21.7 | 0.00 | 0.00 | 0.00 | 12 | 938.2 |
| 20260906211521 | 78 | 267 | 11.3 | 21.7 | 0.00 | 0.00 | 0.00 | 14 | 938.1 |
| 20260906210007 | 77 | 192 | 13.0 | 25.2 | 0.00 | 0.00 | 0.00 | 13 | 938.5 |
| 20260906204551 | 76 | 217 | 10.4 | 19.1 | 0.00 | 0.00 | 0.00 | 14 | 938.8 |
| 20260906203032 | 77 | 145 | 8.7 | 21.7 | 0.00 | 0.00 | 0.00 | 14 | 938.7 |
| 20260906201514 | 77 | 210 | 13.9 | 21.7 | 0.00 | 0.00 | 0.00 | 14 | 938.9 |
| 20260906200114 | 77 | 223 | 6.1 | 15.6 | 0.00 | 0.00 | 0.00 | 15 | 938.7 |
| 20260906200002 | 77 | 159 | 7.8 | 15.6 | 0.00 | 0.00 | 0.00 | 15 | 938.7 |
| 20260906194538 | 76 | 152 | 10.4 | 19.1 | 0.00 | 0.00 | 0.00 | 15 | 938.7 |
| 20260906193020 | 76 | 152 | 9.6 | 18.2 | 0.00 | 0.00 | 0.00 | 16 | 938.9 |
| 20260906191508 | 76 | 166 | 12.2 | 16.5 | 0.00 | 0.00 | 0.00 | 15 | 938.8 |
| 20260906190111 | 75 | 191 | 11.3 | 23.5 | 0.00 | 0.00 | 0.00 | 16 | 939.2 |
| 20260906184533 | 75 | 152 | 8.7 | 16.5 | 0.00 | 0.00 | 0.00 | 17 | 939.7 |
| 20260906183106 | 74 | 188 | 10.4 | 18.2 | 0.00 | 0.00 | 0.00 | 17 | 939.9 |
| 20260906183003 | 74 | 173 | 12.2 | 17.4 | 0.00 | 0.00 | 0.00 | 17 | 939.9 |
| 20260906181542 | 74 | 173 | 10.4 | 20.9 | 0.00 | 0.00 | 0.00 | 17 | 940.0 |
| 20260906180019 | 74 | 123 | 10.4 | 14.8 | 0.00 | 0.00 | 0.00 | 20 | 940.1 |
| 20260906174601 | 73 | 123 | 9.6 | 15.6 | 0.00 | 0.00 | 0.00 | 19 | 940.3 |
| 20260906173041 | 72 | 103 | 5.2 | 17.4 | 0.00 | 0.00 | 0.00 | 21 | 940.7 |
| 20260906171516 | 71 | 119 | 13.0 | 20.0 | 0.00 | 0.00 | 0.00 | 21 | 940.7 |
| 20260906170057 | 70 | 130 | 12.2 | 17.4 | 0.00 | 0.00 | 0.00 | 22 | 940.9 |
| 20260906164535 | 71 | 119 | 6.1 | 13.0 | 0.00 | 0.00 | 0.00 | 22 | 941.0 |
| 20260906163020 | 71 | 118 | 6.1 | 14.8 | 0.00 | 0.00 | 0.00 | 22 | 941.0 |
| 20260906161556 | 69 | 146 | 7.0 | 13.0 | 0.00 | 0.00 | 0.00 | 24 | 941.1 |
| 20260906160038 | 67 | 161 | 7.0 | 11.3 | 0.00 | 0.00 | 0.00 | 26 | 941.2 |
| 20260906154520 | 67 | 123 | 6.1 | 9.6 | 0.00 | 0.00 | 0.00 | 25 | 941.4 |
| 20260906153057 | 66 | 127 | 7.8 | 12.2 | 0.00 | 0.00 | 0.00 | 26 | 941.5 |
| 20260906153002 | 66 | 131 | 7.8 | 12.2 | 0.00 | 0.00 | 0.00 | 26 | 941.6 |
| 20260906151543 | 65 | 121 | 7.0 | 13.0 | 0.00 | 0.00 | 0.00 | 27 | 941.6 |
| 20260906150030 | 65 | 126 | 5.2 | 11.3 | 0.00 | 0.00 | 0.00 | 27 | 941.6 |
| 20260906144516 | 64 | 130 | 7.8 | 11.3 | 0.00 | 0.00 | 0.00 | 27 | 941.6 |
| 20260906143056 | 63 | 101 | 6.1 | 9.6 | 0.00 | 0.00 | 0.00 | 27 | 941.6 |
| 20260906141543 | 62 | 120 | 7.0 | 10.4 | 0.00 | 0.00 | 0.00 | 28 | 941.6 |
| 20260906140044 | 61 | 100 | 7.0 | 10.4 | 0.00 | 0.00 | 0.00 | 28 | 941.7 |
| 20260906134511 | 60 | 115 | 7.0 | 9.6 | 0.00 | 0.00 | 0.00 | 28 | 941.7 |
| 20260906133117 | 59 | 90 | 6.1 | 9.6 | 0.00 | 0.00 | 0.00 | 29 | 941.6 |
| 20260906133004 | 59 | 122 | 7.0 | 9.6 | 0.00 | 0.00 | 0.00 | 29 | 941.5 |
| 20260906131546 | 59 | 107 | 7.0 | 11.3 | 0.00 | 0.00 | 0.00 | 29 | 941.5 |
| 20260906130028 | 59 | 121 | 7.8 | 11.3 | 0.00 | 0.00 | 0.00 | 28 | 941.4 |
| 20260906124507 | 59 | 121 | 6.1 | 10.4 | 0.00 | 0.00 | 0.00 | 28 | 941.3 |
| 20260906123051 | 60 | 130 | 7.8 | 12.2 | 0.00 | 0.00 | 0.00 | 27 | 941.4 |
| 20260906121536 | 61 | 128 | 7.8 | 11.3 | 0.00 | 0.00 | 0.00 | 28 | 941.4 |
| 20260906120023 | 61 | 136 | 6.1 | 13.0 | 0.00 | 0.00 | 0.00 | 28 | 941.5 |
| 20260906114514 | 60 | 135 | 7.0 | 10.4 | 0.00 | 0.00 | 0.00 | 28 | 941.5 |
| 20260906113047 | 60 | 117 | 6.1 | 13.9 | 0.00 | 0.00 | 0.00 | 27 | 941.6 |
| 20260906111538 | 61 | 142 | 7.0 | 12.2 | 0.00 | 0.00 | 0.00 | 28 | 941.5 |
| 20260906110018 | 62 | 122 | 7.8 | 13.0 | 0.00 | 0.00 | 0.00 | 27 | 941.5 |
| 20260906104600 | 62 | 146 | 7.8 | 12.2 | 0.00 | 0.00 | 0.00 | 27 | 941.5 |
| 20260906104502 | 62 | 151 | 7.8 | 12.2 | 0.00 | 0.00 | 0.00 | 27 | 941.4 |
| 20260906103046 | 61 | 128 | 6.1 | 12.2 | 0.00 | 0.00 | 0.00 | 27 | 941.3 |
| 20260906101532 | 60 | 118 | 5.2 | 7.8 | 0.00 | 0.00 | 0.00 | 28 | 941.3 |
| 20260906100015 | 57 | 160 | 0.9 | 3.5 | 0.00 | 0.00 | 0.00 | 40 | 941.5 |
| 20260906094609 | 55 | 182 | 2.6 | 6.1 | 0.00 | 0.00 | 0.00 | 47 | 941.3 |
| 20260906094502 | 55 | 182 | 2.6 | 6.1 | 0.00 | 0.00 | 0.00 | 47 | 941.3 |
| 20260906093054 | 57 | 184 | 3.5 | 5.2 | 0.00 | 0.00 | 0.00 | 41 | 941.4 |
| 20260906091517 | 62 | 209 | 5.2 | 8.7 | 0.00 | 0.00 | 0.00 | 28 | 941.4 |
| 20260906090135 | 63 | 114 | 6.1 | 11.3 | 0.00 | 0.00 | 0.00 | 26 | 941.3 |
| 20260906084550 | 64 | 122 | 6.1 | 9.6 | 0.00 | 0.00 | 0.00 | 24 | 941.3 |
| 20260906083035 | 65 | 109 | 4.3 | 12.2 | 0.00 | 0.00 | 0.00 | 23 | 941.4 |
| 20260906081512 | 65 | 145 | 5.2 | 7.8 | 0.00 | 0.00 | 0.00 | 24 | 941.5 |
| 20260906080105 | 65 | 136 | 4.3 | 7.8 | 0.00 | 0.00 | 0.00 | 23 | 941.6 |
| 20260906074549 | 66 | 106 | 5.2 | 10.4 | 0.00 | 0.00 | 0.00 | 23 | 941.7 |
| 20260906073024 | 66 | 122 | 4.3 | 7.8 | 0.00 | 0.00 | 0.00 | 22 | 941.6 |
| 20260906071559 | 66 | 97 | 4.3 | 7.8 | 0.00 | 0.00 | 0.00 | 22 | 941.6 |
| 20260906071501 | 66 | 94 | 5.2 | 7.8 | 0.00 | 0.00 | 0.00 | 22 | 941.6 |
| 20260906070045 | 67 | 96 | 6.1 | 8.7 | 0.00 | 0.00 | 0.00 | 21 | 941.5 |
| 20260906064534 | 66 | 150 | 3.5 | 7.8 | 0.00 | 0.00 | 0.00 | 21 | 941.5 |
| 20260906063013 | 67 | 111 | 5.2 | 8.7 | 0.00 | 0.00 | 0.00 | 20 | 941.6 |
| 20260906061601 | 67 | 78 | 5.2 | 8.7 | 0.00 | 0.00 | 0.00 | 21 | 941.6 |
| 20260906060032 | 66 | 107 | 3.5 | 6.1 | 0.00 | 0.00 | 0.00 | 21 | 941.8 |
| 20260906054509 | 66 | 102 | 3.5 | 6.1 | 0.00 | 0.00 | 0.00 | 21 | 941.8 |
| 20260906053106 | 66 | 69 | 3.5 | 5.2 | 0.00 | 0.00 | 0.00 | 21 | 941.9 |
| 20260906051537 | 66 | 92 | 5.2 | 8.7 | 0.00 | 0.00 | 0.00 | 21 | 942.1 |
| 20260906050018 | 66 | 117 | 4.3 | 7.0 | 0.00 | 0.00 | 0.00 | 21 | 942.3 |
| 20260906044604 | 67 | 117 | 5.2 | 8.7 | 0.00 | 0.00 | 0.00 | 21 | 942.4 |
| 20260906043043 | 67 | 90 | 5.2 | 8.7 | 0.00 | 0.00 | 0.00 | 21 | 942.5 |
| 20260906041537 | 67 | 109 | 6.1 | 7.8 | 0.00 | 0.00 | 0.00 | 21 | 942.6 |
| 20260906040012 | 67 | 110 | 5.2 | 8.7 | 0.00 | 0.00 | 0.00 | 21 | 942.5 |
| 20260906034554 | 66 | 103 | 3.5 | 7.0 | 0.00 | 0.00 | 0.00 | 21 | 942.6 |
| 20260906033044 | 68 | 90 | 5.2 | 7.0 | 0.00 | 0.00 | 0.00 | 19 | 942.6 |
| 20260906031522 | 69 | 80 | 4.3 | 6.1 | 0.00 | 0.00 | 0.00 | 19 | 942.8 |
| 20260906030100 | 69 | 76 | 2.6 | 5.2 | 0.00 | 0.00 | 0.00 | 19 | 942.8 |
| 20260906024600 | 69 | 158 | 1.7 | 4.3 | 0.00 | 0.00 | 0.00 | 18 | 942.8 |
| 20260906023026 | 69 | 153 | 0.9 | 2.6 | 0.00 | 0.00 | 0.00 | 19 | 942.6 |
| 20260906021506 | 69 | 221 | 2.6 | 4.3 | 0.00 | 0.00 | 0.00 | 19 | 942.5 |
| 20260906020047 | 70 | 209 | 3.5 | 6.1 | 0.00 | 0.00 | 0.00 | 19 | 942.6 |
| 20260906014538 | 71 | 197 | 5.2 | 8.7 | 0.00 | 0.00 | 0.00 | 17 | 942.6 |
| 20260906013103 | 73 | 170 | 6.1 | 9.6 | 0.00 | 0.00 | 0.00 | 16 | 942.7 |
| 20260906013002 | 73 | 184 | 5.2 | 10.4 | 0.00 | 0.00 | 0.00 | 17 | 942.7 |
| 20260906011551 | 74 | 223 | 4.3 | 11.3 | 0.00 | 0.00 | 0.00 | 17 | 942.8 |
| 20260906010035 | 75 | 189 | 5.2 | 13.0 | 0.00 | 0.00 | 0.00 | 16 | 942.8 |
| 20260906004550 | 75 | 219 | 4.3 | 11.3 | 0.00 | 0.00 | 0.00 | 16 | 942.7 |
| 20260906003030 | 75 | 168 | 7.8 | 13.0 | 0.00 | 0.00 | 0.00 | 16 | 942.7 |
| 20260906001510 | 76 | 189 | 6.1 | 10.4 | 0.00 | 0.00 | 0.00 | 15 | 942.6 |
| 20260906000044 | 77 | 172 | 7.0 | 12.2 | 0.00 | 0.00 | 0.00 | 15 | 942.5 |
| 20260905234526 | 77 | 196 | 7.0 | 20.0 | 0.00 | 0.00 | 0.00 | 16 | 942.5 |